GOES 15 [+]

Last updated on Wed Sep 09 2020 05:41:48 GMT+0000 (Coordinated Universal Time)

1 36411U 10008A 20252.56168396 .00000053 00000-0 00000-0 0 9997 2 36411 0.0746 111.4479 0002139 329.2019 341.6191 1.00264340 38536
UTC large
Height (km)
Speed (km/s)
/
Latitude / Longitude
Inclination (degrees)
Orbital Period (minutes)
Azimuth
Elevation
Range (km)
Doppler Factor

Next 0 passes for location: London (51.5072 / 0.1276)

Sorry there are no passes over London.